Location: Firnhaberau
(48.4049°N, 10.8963°E)
Time: 06:50:03
(UTC+00:00)

OPS 8737 - Pass Details

Date: 07 June 2020
Orbit: 357 x 1724 km, 63.3° (Epoch: 21 June)

Event Time Altitude Azimuth Distance (km) Brightness Sun altitude
Rises 01:00:02 0° 317° (NW) 2,304 8.3 -15.1°
Reaches altitude 10° 01:01:51 10° 316° (NW) 1,523 7.3 -14.9°
Maximum altitude 01:05:08 77° 231° (SW) 518 4.5 -14.7°
Drops below altitude 10° 01:09:29 10° 145° (SE) 2,013 7.4 -14.4°
Sets 01:12:12 0° 144° (SE) 3,145 8.4 -14.2°
